Location: Unspecified
(0.0000°N, 0.0000°E)
Time: 04:57:06
(UTC+01:00)

Resurs 01 Rocket - Visible Passes

Search period start: 28 March 2015 00:00
Search period end: 07 April 2015 01:00
Orbit: 635 x 646 km, 98.2° (Epoch: 26 March)

Date Brightness Start Highest point End Pass type
(mag) Time Alt. Az. Time Alt. Az. Time Alt. Az.
28 Mar 4.8 06:27:34 10° ENE 06:30:06 16° E 06:32:52 10° SE visible
28 Mar 4.7 20:15:38 10° SW 20:18:22 15° W 20:20:52 10° WNW visible
30 Mar 1.9 20:24:37 10° S 20:29:05 76° WSW 20:33:30 10° NNW visible
31 Mar 3.5 20:48:32 10° SSW 20:52:36 35° WSW 20:56:37 10° NW visible
01 Apr 4.8 07:25:38 10° ENE 07:27:54 14° E 07:30:26 10° SE visible
01 Apr 4.6 21:13:14 10° SW 21:16:11 17° W 21:18:54 10° WNW visible
03 Apr 1.8 20:22:25 10° S 20:26:54 84° W 20:31:19 10° NNW visible
04 Apr 3.3 20:46:16 10° S 20:50:25 38° WSW 20:54:29 10° NW visible
05 Apr 4.9 07:23:45 10° ENE 07:25:42 13° E 07:27:56 10° SE visible
05 Apr 4.6 21:10:50 10° SW 21:13:58 18° W 21:16:55 10° WNW visible
